Vlieland, Netherlands

9:18 AM CEST on June 23, 2017 (GMT +0200)
Vlieland

Weather History for EHVL - October, 2012

Change the Weather History Date:

Thursday, October 18, 2012

  Actual Average Record
Temperature  
Mean Temperature 56 °F -  
Max Temperature 59 °F 50 °F 66 °F (2014)
Min Temperature 53 °F 44 °F 37 °F (2003)
Degree Days  
Heating Degree Days 9    
Growing Degree Days 6 (Base 50)    
Moisture  
Dew Point 54 °F    
Average Humidity 95    
Maximum Humidity 100    
Minimum Humidity 88    
Precipitation  
Precipitation 0.00 in - - ()
Sea Level Pressure  
Sea Level Pressure 29.68 in    
Wind  
Wind Speed 12 mph ()    
Max Wind Speed 21 mph    
Max Gust Speed -    
Visibility 5.6 miles    
Events Rain    
Averages and records for this station are not official NWS values.
T = Trace of Precipitation, MM = Missing Value Source: Averaged Metar Reports

Daily Weather History Graph

Daily Weather History Graph

Search for Another Location

Airport or City:

Trip Planner

Search our weather history database for the weather conditions in past years. The results will help you decide how hot, cold, wet, or windy it might be!

Date:

Astronomy

Oct. 18, 2012 Rise Set
Actual Time 8:12 AM CEST 6:36 PM CEST
Civil Twilight 7:37 AM CEST 7:12 PM CEST
Nautical Twilight 6:57 AM CEST 7:52 PM CEST
Astronomical Twilight 6:17 AM CEST 8:32 PM CEST
Moon 12:08 PM CEST (10/18) 8:24 PM CEST (10/18)
Length of Visible Light 11h 34m
Length of Day
10h 23m
Waxing Crescent, 12% of the Moon is Illuminated
Oct 18
Waxing Crescent
Oct 22
First Quarter
Oct 29
Full
Nov 7
Last Quarter
Nov 13
New

Hourly Weather History & Observations

Time (CEST) Temp. Dew Point Humidity Pressure Visibility Wind Dir Wind Speed Gust Speed Precip Events Conditions
12:02 AM 53.6 °F 51.8 °F 94% 29.65 in 6.2 mi South 5.8 mph - N/A   Mostly Cloudy
12:06 AM 53.6 °F 51.8 °F 94% 29.65 in 6.2 mi South 5.8 mph - N/A   Overcast
12:14 AM 53.6 °F 51.8 °F 94% 29.65 in 6.2 mi South 8.1 mph - N/A   Mostly Cloudy
12:18 AM 53.6 °F 51.8 °F 94% 29.65 in 6.2 mi SSE 9.2 mph - N/A   Overcast
12:25 AM 53.6 °F 51.8 °F 94% 29.65 in 6.2 mi South 10.4 mph - N/A   Overcast
12:55 AM 53.6 °F 51.8 °F 94% 29.65 in 5.0 mi SSE 9.2 mph - N/A   Light Drizzle
1:00 AM 53.6 °F 51.8 °F 94% 29.65 in 4.3 mi SSE 8.1 mph - N/A   Overcast
1:25 AM 53.6 °F 51.8 °F 94% 29.65 in 4.3 mi SSE 10.4 mph - N/A Rain Light Rain
1:55 AM 53.6 °F 51.8 °F 94% 29.65 in 3.7 mi SSE 13.8 mph - N/A   Mostly Cloudy
2:25 AM 53.6 °F 51.8 °F 94% 29.62 in 3.1 mi SSE 16.1 mph - N/A   Mostly Cloudy
2:55 AM 53.6 °F 51.8 °F 94% 29.62 in 4.3 mi SSE 18.4 mph - N/A   Overcast
3:04 AM 53.6 °F 51.8 °F 94% 29.62 in 5.0 mi SSE 17.3 mph - N/A   Overcast
3:17 AM 53.6 °F 51.8 °F 94% 29.62 in 5.6 mi SSE 18.4 mph - N/A   Overcast
3:25 AM 53.6 °F 51.8 °F 94% 29.62 in 6.2 mi SSE 19.6 mph - N/A   Mostly Cloudy
3:55 AM 53.6 °F 51.8 °F 94% 29.62 in 6.2 mi SSE 16.1 mph - N/A   Mostly Cloudy
4:14 AM 53.6 °F 51.8 °F 94% 29.62 in 4.3 mi SSE 16.1 mph - N/A   Overcast
4:18 AM 53.6 °F 51.8 °F 94% 29.62 in 5.0 mi SSE 15.0 mph - N/A   Overcast
4:25 AM 53.6 °F 51.8 °F 94% 29.62 in 4.3 mi SSE 15.0 mph - N/A   Mostly Cloudy
4:43 AM 53.6 °F 51.8 °F 94% 29.62 in 5.0 mi SSE 12.7 mph - N/A   Mostly Cloudy
4:55 AM 53.6 °F 51.8 °F 94% 29.62 in 5.6 mi SSE 13.8 mph - N/A   Overcast
5:25 AM 53.6 °F 51.8 °F 94% 29.62 in 6.2 mi SSE 16.1 mph - N/A   Overcast
5:55 AM 53.6 °F 51.8 °F 94% 29.62 in 6.2 mi South 15.0 mph - N/A   Mostly Cloudy
6:25 AM 53.6 °F 51.8 °F 94% 29.62 in 6.2 mi South 13.8 mph - N/A   Mostly Cloudy
6:55 AM 53.6 °F 51.8 °F 94% 29.59 in 6.2 mi SSE 15.0 mph - N/A   Overcast
7:25 AM 53.6 °F 51.8 °F 94% 29.59 in 6.2 mi SSE 15.0 mph - N/A   Overcast
7:55 AM 53.6 °F 53.6 °F 100% 29.59 in 6.2 mi SSE 15.0 mph - N/A   Overcast
8:25 AM 55.4 °F 53.6 °F 94% 29.59 in 6.2 mi SSE 18.4 mph - N/A   Overcast
8:47 AM 55.4 °F 53.6 °F 94% 29.62 in 6.2 mi South 17.3 mph - N/A   Overcast
8:55 AM 55.4 °F 53.6 °F 94% 29.62 in 6.2 mi South 17.3 mph - N/A   Overcast
8:57 AM 55.4 °F 53.6 °F 94% 29.62 in 6.2 mi South 16.1 mph - N/A   Overcast
9:07 AM 55.4 °F 53.6 °F 94% 29.62 in 6.2 mi South 17.3 mph - N/A   Overcast
9:25 AM 55.4 °F 53.6 °F 94% 29.62 in 6.2 mi South 17.3 mph - N/A   Overcast
9:41 AM 55.4 °F 53.6 °F 94% 29.62 in 6.2 mi South 16.1 mph - N/A   Mostly Cloudy
9:45 AM 55.4 °F 53.6 °F 94% 29.62 in 6.2 mi South 15.0 mph - N/A   Overcast
9:55 AM 55.4 °F 53.6 °F 94% 29.62 in 6.2 mi South 13.8 mph - N/A   Overcast
9:57 AM 55.4 °F 53.6 °F 94% 29.62 in 6.2 mi South 16.1 mph - N/A   Overcast
10:03 AM 55.4 °F 53.6 °F 94% 29.62 in 6.2 mi South 16.1 mph - N/A   Overcast
10:12 AM 55.4 °F 53.6 °F 94% 29.62 in 6.2 mi South 16.1 mph - N/A   Overcast
10:25 AM 55.4 °F 53.6 °F 94% 29.62 in 6.2 mi South 15.0 mph - N/A   Light Drizzle
10:55 AM 55.4 °F 53.6 °F 94% 29.62 in 6.2 mi South 16.1 mph - N/A   Drizzle
10:59 AM 55.4 °F 55.4 °F 100% 29.65 in 6.2 mi South 16.1 mph - N/A   Drizzle
11:00 AM 55.4 °F 55.4 °F 100% 29.65 in 6.2 mi South 16.1 mph - N/A   Light Drizzle
11:07 AM 55.4 °F 53.6 °F 94% 29.65 in 6.2 mi South 15.0 mph - N/A   Overcast
11:09 AM 55.4 °F 55.4 °F 100% 29.65 in 6.2 mi South 15.0 mph - N/A   Overcast
11:15 AM 55.4 °F 55.4 °F 100% 29.65 in 6.2 mi South 15.0 mph - N/A   Overcast
11:16 AM 55.4 °F 53.6 °F 94% 29.65 in 6.2 mi South 15.0 mph - N/A   Overcast
11:25 AM 55.4 °F 53.6 °F 94% 29.65 in 6.2 mi South 15.0 mph - N/A   Overcast
11:55 AM 55.4 °F 53.6 °F 94% 29.65 in 6.2 mi South 13.8 mph - N/A   Overcast
12:25 PM 57.2 °F 55.4 °F 94% 29.65 in 6.2 mi South 13.8 mph - N/A   Overcast
12:55 PM 57.2 °F 55.4 °F 94% 29.68 in 6.2 mi South 13.8 mph - N/A   Overcast
1:25 PM 57.2 °F 55.4 °F 94% 29.68 in 6.2 mi SSW 16.1 mph - N/A   Mostly Cloudy
1:36 PM 57.2 °F 57.2 °F 100% 29.68 in 6.2 mi SSW 20.7 mph - N/A   Mostly Cloudy
1:55 PM 59.0 °F 57.2 °F 94% 29.68 in 6.2 mi SSW 20.7 mph - N/A   Overcast
2:25 PM 57.2 °F 55.4 °F 94% 29.68 in 6.2 mi SSW 19.6 mph - N/A Rain Light Rain
2:41 PM 57.2 °F 55.4 °F 94% 29.68 in 6.2 mi SSW 18.4 mph - N/A   Light Drizzle
2:45 PM 57.2 °F 55.4 °F 94% 29.68 in 6.2 mi SSW 17.3 mph - N/A   Drizzle
2:55 PM 57.2 °F 55.4 °F 94% 29.68 in 6.2 mi SSW 17.3 mph - N/A   Light Drizzle
2:59 PM 57.2 °F 55.4 °F 94% 29.68 in 6.2 mi SSW 17.3 mph - N/A   Light Drizzle
3:03 PM 57.2 °F 55.4 °F 94% 29.68 in 6.2 mi South 16.1 mph - N/A   Mostly Cloudy
3:25 PM 57.2 °F 55.4 °F 94% 29.71 in 6.2 mi SSW 16.1 mph - N/A   Mostly Cloudy
3:43 PM 57.2 °F 55.4 °F 94% 29.71 in 6.2 mi SSW 16.1 mph - N/A   Mostly Cloudy
3:55 PM 57.2 °F 55.4 °F 94% 29.71 in 6.2 mi SSW 17.3 mph - N/A   Light Drizzle
4:25 PM 57.2 °F 55.4 °F 94% 29.71 in 6.2 mi SSW 17.3 mph - N/A   Light Drizzle
4:55 PM 57.2 °F 55.4 °F 94% 29.71 in 6.2 mi SSW 13.8 mph - N/A   Overcast
5:08 PM 57.2 °F 55.4 °F 94% 29.71 in 6.2 mi SSW 13.8 mph - N/A   Overcast
5:25 PM 57.2 °F 55.4 °F 94% 29.71 in 6.2 mi SSW 13.8 mph - N/A   Overcast
5:55 PM 57.2 °F 55.4 °F 94% 29.74 in 6.2 mi SSW 12.7 mph - N/A   Mostly Cloudy
6:25 PM 57.2 °F 53.6 °F 88% 29.74 in 6.2 mi South 11.5 mph - N/A   Overcast
6:55 PM 55.4 °F 53.6 °F 94% 29.74 in 6.2 mi South 8.1 mph - N/A   Drizzle
7:25 PM 55.4 °F 53.6 °F 94% 29.74 in 6.2 mi South 10.4 mph - N/A   Light Drizzle
7:55 PM 55.4 °F 53.6 °F 94% 29.74 in 6.2 mi South 8.1 mph - N/A   Light Drizzle
8:25 PM 55.4 °F 53.6 °F 94% 29.74 in 6.2 mi South 6.9 mph - N/A   Mostly Cloudy
8:29 PM 55.4 °F 53.6 °F 94% 29.74 in 6.2 mi South 8.1 mph - N/A   Overcast
8:32 PM 55.4 °F 53.6 °F 94% 29.74 in 6.2 mi South 8.1 mph - N/A   Overcast
8:55 PM 55.4 °F 53.6 °F 94% 29.77 in 6.2 mi South 6.9 mph - N/A   Overcast
9:05 PM 55.4 °F 53.6 °F 94% 29.77 in 6.2 mi South 6.9 mph - N/A   Light Drizzle
9:25 PM 55.4 °F 53.6 °F 94% 29.77 in 6.2 mi South 5.8 mph - N/A   Overcast
9:36 PM 55.4 °F 53.6 °F 94% 29.77 in 4.3 mi South 5.8 mph - N/A   Light Drizzle
9:39 PM 55.4 °F 53.6 °F 94% 29.77 in 5.0 mi South 5.8 mph - N/A   Drizzle
9:46 PM 55.4 °F 53.6 °F 94% 29.77 in 4.3 mi South 5.8 mph - N/A   Drizzle
9:55 PM 53.6 °F 53.6 °F 100% 29.77 in 4.3 mi South 6.9 mph - N/A   Light Drizzle
10:00 PM 53.6 °F 53.6 °F 100% 29.77 in 3.1 mi South 6.9 mph - N/A Rain Light Rain
10:06 PM 53.6 °F 53.6 °F 100% 29.77 in 3.1 mi South 6.9 mph - N/A   Overcast
10:09 PM 53.6 °F 53.6 °F 100% 29.77 in - South 5.8 mph - N/A Rain Rain
10:20 PM 53.6 °F 53.6 °F 100% 29.77 in 3.1 mi South 5.8 mph - N/A   Drizzle
10:25 PM 53.6 °F 53.6 °F 100% 29.77 in - South 5.8 mph - N/A Rain Rain
10:32 PM 53.6 °F 53.6 °F 100% 29.77 in - South 5.8 mph - N/A   Drizzle
10:47 PM 53.6 °F 53.6 °F 100% 29.77 in 3.1 mi SSE 5.8 mph - N/A Rain Rain
10:55 PM 53.6 °F 53.6 °F 100% 29.77 in 3.7 mi SE 6.9 mph - N/A   Drizzle
11:10 PM 53.6 °F 53.6 °F 100% 29.77 in 5.0 mi SE 6.9 mph - N/A   Overcast
11:16 PM 53.6 °F 53.6 °F 100% 29.77 in 4.3 mi SSE 6.9 mph - N/A   Overcast
11:20 PM 53.6 °F 53.6 °F 100% 29.77 in 5.0 mi SSE 6.9 mph - N/A Rain Light Rain
11:25 PM 53.6 °F 53.6 °F 100% 29.77 in 4.3 mi SSE 5.8 mph - N/A   Drizzle
11:37 PM 53.6 °F 53.6 °F 100% 29.77 in - South 5.8 mph - N/A   Drizzle
11:41 PM 53.6 °F 53.6 °F 100% 29.77 in 3.1 mi South 5.8 mph - N/A   Drizzle
11:45 PM 53.6 °F 53.6 °F 100% 29.77 in - South 4.6 mph - N/A   Heavy Drizzle
11:55 PM 53.6 °F 53.6 °F 100% 29.77 in - SSE 4.6 mph - N/A   Light Drizzle
11:59 PM 53.6 °F 53.6 °F 100% 29.77 in 3.1 mi South 4.6 mph - N/A   Overcast